Weather History for Tampa Macdill AFB, FL

Change the Weather History Date:

Sunday, June 16, 2013

  Actual Average Record
Temperature  
Mean Temperature 84 °F -  
Max Temperature 94 °F 88 °F 94 °F (2011)
Min Temperature 76 °F 72 °F 69 °F (2011)
Cooling Degree Days 20    
Growing Degree Days 34 (Base 50)    
Moisture  
Dew Point 77 °F    
Average Humidity 84    
Maximum Humidity 100    
Minimum Humidity 51    
Precipitation  
Precipitation 0.00 in - - ()
Sea Level Pressure  
Sea Level Pressure 30.06 in    
Wind  
Wind Speed 9 mph (East)    
Max Wind Speed 18 mph    
Max Gust Speed 28 mph    
Visibility 10 miles    
Events Thunderstorm    
Averages and records for this station are not official NWS values.
T = Trace of Precipitation, MM = Missing Value Source: NWS Daily Summary

Daily Weather History Graph

Daily Weather History Graph

Search for Another Location

Airport:

Trip Planner

Search our weather history database for the weather conditions in past years. The results will help you decide how hot, cold, wet, or windy it might be!

Date:

Astronomy

Jun. 16, 2013 Rise Set
Actual Time 6:33 AM EDT 8:27 PM EDT
Civil Twilight 6:07 AM EDT 8:54 PM EDT
Nautical Twilight 5:34 AM EDT 9:26 PM EDT
Astronomical Twilight 5:00 AM EDT 10:01 PM EDT
Moon 1:32 PM EDT (6/16) 1:05 AM EDT (6/16)
Length of Visible Light 14h 47m
Length of Day
13h 54m
Waxing Crescent, 49% of the Moon is Illuminated
Jun 16
Waxing Crescent
Jun 16
First Quarter
Jun 23
Full
Jun 30
Last Quarter
Jul 8
New

Hourly Weather History & Observations

Time (EDT) Temp. Heat Index Dew Point Humidity Pressure Visibility Wind Dir Wind Speed Gust Speed Precip Events Conditions
12:58 AM 78.8 °F - 77.4 °F 95% 30.08 in 10.0 mi East 9.2 mph - N/A   Partly Cloudy
1:30 AM 78.8 °F - 77.0 °F 94% 30.07 in 9.0 mi East 9.2 mph - N/A   Light Drizzle
1:58 AM 77.5 °F - 77.5 °F 100% 30.08 in 6.0 mi ESE 9.2 mph - 0.00 in   Light Drizzle
2:12 AM 77.0 °F - 77.0 °F 100% 30.06 in 10.0 mi ESE 9.2 mph - N/A   Partly Cloudy
2:24 AM 77.0 °F - 77.0 °F 100% 30.05 in 7.0 mi East 10.4 mph - N/A   Light Drizzle
2:41 AM 77.0 °F - 77.0 °F 100% 30.05 in 7.0 mi East 11.5 mph - N/A   Clear
2:58 AM 77.5 °F - 77.5 °F 100% 30.06 in 10.0 mi East 12.7 mph - 0.00 in   Clear
3:58 AM 77.9 °F - 77.9 °F 100% 30.05 in 10.0 mi East 11.5 mph - N/A   Partly Cloudy
4:58 AM 77.4 °F - 77.4 °F 100% 30.05 in 10.0 mi East 10.4 mph - N/A   Mostly Cloudy
5:58 AM 76.8 °F - 76.8 °F 100% 30.05 in 10.0 mi East 8.1 mph - N/A   Partly Cloudy
6:18 AM 77.0 °F - 77.0 °F 100% 30.06 in 10.0 mi East 9.2 mph - N/A   Mostly Cloudy
6:43 AM 77.0 °F - 77.0 °F 100% 30.06 in 10.0 mi East 9.2 mph - N/A   Scattered Clouds
6:58 AM 76.8 °F - 76.8 °F 100% 30.08 in 10.0 mi East 8.1 mph - N/A   Scattered Clouds
7:58 AM 78.1 °F - 78.1 °F 100% 30.08 in 10.0 mi East 8.1 mph - N/A   Scattered Clouds
8:58 AM 81.3 °F 89.9 °F 78.8 °F 92% 30.10 in 10.0 mi East 6.9 mph - N/A   Partly Cloudy
9:58 AM 84.4 °F 96.3 °F 78.6 °F 83% 30.10 in 10.0 mi East 4.6 mph - N/A   Scattered Clouds
10:58 AM 86.5 °F 100.4 °F 78.8 °F 78% 30.09 in 10.0 mi Variable 4.6 mph - N/A   Scattered Clouds
11:58 AM 89.2 °F 106.3 °F 79.9 °F 74% 30.09 in 10.0 mi SE 5.8 mph - N/A   Mostly Cloudy
12:58 PM 91.0 °F 109.1 °F 79.9 °F 70% 30.08 in 10.0 mi ESE 5.8 mph - N/A   Scattered Clouds
1:58 PM 92.5 °F 108.2 °F 78.1 °F 63% 30.08 in 10.0 mi Variable 2.3 mph - N/A   Mostly Cloudy
2:58 PM 93.7 °F 102.9 °F 73.2 °F 51% 30.06 in 10.0 mi SSW 6.9 mph - N/A   Partly Cloudy
3:58 PM 91.6 °F 107.8 °F 79.0 °F 66% 30.04 in 10.0 mi WSW 9.2 mph - N/A   Partly Cloudy
4:58 PM 90.7 °F 108.7 °F 80.1 °F 71% 30.04 in 10.0 mi NW 10.4 mph - N/A Thunderstorm Mostly Cloudy
5:58 PM 90.0 °F 104.5 °F 78.3 °F 68% 30.04 in 10.0 mi Variable 6.9 mph - N/A Thunderstorm Partly Cloudy
6:07 PM 89.6 °F 104.7 °F 78.8 °F 70% 30.03 in 10.0 mi Variable 6.9 mph - N/A Thunderstorm Thunderstorm
6:27 PM 89.6 °F 102.2 °F 77.0 °F 66% 30.03 in 10.0 mi East 18.4 mph 19.6 mph N/A Thunderstorm Thunderstorm
6:31 PM 87.8 °F 99.7 °F 77.0 °F 70% 30.03 in 10.0 mi East 13.8 mph 27.6 mph N/A Thunderstorm Overcast
6:35 PM 87.8 °F 99.7 °F 77.0 °F 70% 30.04 in 10.0 mi East 15.0 mph 27.6 mph N/A Thunderstorm Thunderstorm
6:58 PM 84.2 °F 93.8 °F 76.8 °F 78% 30.05 in 10.0 mi NE 8.1 mph - N/A Thunderstorm Thunderstorm
7:02 PM 84.2 °F 92.3 °F 75.2 °F 74% 30.04 in 10.0 mi NE 6.9 mph - N/A Thunderstorm Overcast
7:07 PM 84.2 °F 92.3 °F 75.2 °F 74% 30.04 in 10.0 mi NE 6.9 mph - N/A   Mostly Cloudy
7:12 PM 84.2 °F 92.3 °F 75.2 °F 74% 30.04 in 10.0 mi North 9.2 mph - N/A   Overcast
7:17 PM 84.2 °F 92.3 °F 75.2 °F 74% 30.05 in 10.0 mi North 9.2 mph - N/A   Overcast
7:58 PM 81.7 °F 88.0 °F 74.8 °F 80% 30.04 in 10.0 mi West 3.5 mph - N/A   Partly Cloudy
8:58 PM 82.4 °F 90.6 °F 76.6 °F 83% 30.06 in 10.0 mi NNW 4.6 mph - N/A   Clear
9:58 PM 81.7 °F 89.0 °F 76.5 °F 84% 30.07 in 10.0 mi NNE 4.6 mph - N/A   Partly Cloudy
10:58 PM 79.3 °F - 75.7 °F 89% 30.08 in 10.0 mi ENE 5.8 mph - N/A   Partly Cloudy
11:58 PM 78.4 °F - 77.0 °F 95% 30.09 in 10.0 mi East 5.8 mph - N/A   Scattered Clouds